Printer-friendly version

IAU Minor Planet Center

Minor Planet Center

MPEC 2006-G16 : 2006 GU

The following Minor Planet Electronic Circular may be linked-to from your own Web pages, but must not otherwise be redistributed electronically.


Read MPEC 2006-G15 Read MPEC 2006-G17


M.P.E.C. 2006-G16                                Issued 2006 Apr. 3, 23:49 UT

     The Minor Planet Electronic Circulars contain information on unusual
         minor planets and routine data on comets.  They are published
   on behalf of Commission 20 of the International Astronomical Union by the
          Minor Planet Center, Smithsonian Astrophysical Observatory,
                          Cambridge, MA 02138, U.S.A.

                  Supported in part by the Brinson Foundation
                  Supported in part by the TABASGO Foundation
             Prepared using the Tamkin Foundation Computer Network

                              MPC@CFA.HARVARD.EDU
          URL http://cfa-www.harvard.edu/iau/mpc.html  ISSN 1523-6714

                                    2006 GU

Observations:
     K06G00U  C2006 04 02.28295 12 19 30.90 +17 31 27.0          20.1 V EG016703
     K06G00U  C2006 04 02.29099 12 19 30.39 +17 31 34.3          20.5 V EG016703
     K06G00U  C2006 04 02.29905 12 19 29.82 +17 31 42.4          20.0 V EG016703
     K06G00U  C2006 04 02.30736 12 19 29.38 +17 31 50.4          19.8 V EG016703
     K06G00U* C2006 04 02.31969 12 19 28.38 +17 32 00.1          20.7 V EG016703
     K06G00U  C2006 04 02.33007 12 19 27.69 +17 32 08.7          20.2 V EG016703
     K06G00U  C2006 04 02.34031 12 19 26.86 +17 32 18.9          20.4 V EG016703
     K06G00U  C2006 04 02.35049 12 19 26.14 +17 32 26.8          20.2 V EG016703
     K06G00U  C2006 04 02.36176 12 19 25.39 +17 32 36.0          20.2 V EG016703
     K06G00U  C2006 04 02.37031 12 19 24.81 +17 32 45.1          20.5 V EG016703
     K06G00U  C2006 04 02.37907 12 19 24.27 +17 32 53.0          20.3 V EG016703
     K06G00U  C2006 04 02.38755 12 19 23.73 +17 33 00.0          20.5 V EG016703
     K06G00U  C2006 04 02.96477 12 18 45.59 +17 41 27.4                 EG016J95
     K06G00U  C2006 04 02.97277 12 18 45.09 +17 41 34.5                 EG016J95
     K06G00U  C2006 04 02.98063 12 18 44.50 +17 41 41.6          20.7 R EG016J95
     K06G00U  C2006 04 03.89455 12 17 43.76 +17 54 59.2                 EG016J95
     K06G00U  C2006 04 03.90004 12 17 43.41 +17 55 03.8                 EG016J95
     K06G00U  C2006 04 03.90551 12 17 42.95 +17 55 08.1          20.8 R EG016J95

Observer details:
703 Catalina Sky Survey.  Observer R. Hill.  Measurers E. C. Beshore,
    E. J. Christensen, G. J. Garradd, A. R. Gibbs, A. D. Grauer, R. E. Hill,
    R. A. Kowalski, S. M. Larson, R. H. McNaught.  0.68-m Schmidt + CCD.
J95 Great Shefford.  Observer P. Birtwhistle.  0.40-m f/6.0 Schmidt-Cassegrain
    + CCD.

Orbital elements:
2006 GU                                                  Earth MOID = 0.1794 AU
Epoch 2006 Mar. 6.0 TT = JDT 2453800.5                  MPC
M 326.43868              (2000.0)            P               Q
n   0.19534777     Peri.  143.46659     +0.20863169     +0.96722925
a   2.9416911      Node   138.02364     -0.94070992     +0.23893476
e   0.6063072      Incl.   12.49544     -0.26746525     -0.08589389
P   5.05           H   18.1           G   0.15           U   9
Residuals in seconds of arc
060402 703  0.3-  0.3-    060402 703  1.0-  0.8+    060402 J95  0.4-  0.1-
060402 703  0.4+  0.1-    060402 703  1.2-  0.3-    060402 J95  0.3+  0.0
060402 703  0.3+  0.8+    060402 703  0.8-  1.1-    060402 J95  0.4-  0.2+
060402 703 (2.3+  1.5+)   060402 703  0.6-  0.5+    060403 J95  0.1+  0.4+
060402 703  0.2+  0.2+    060402 703  0.4+  0.7+    060403 J95  0.5+  0.2+
060402 703  0.7+  0.4-    060402 703  1.0+  0.2+    060403 J95  0.7-  0.3-

Ephemeris:
2006 GU                  a,e,i = 2.94, 0.61, 12                  q = 1.1581
Date    TT    R. A. (2000) Decl.     Delta      r     Elong.  Phase     V
2006 03 26    12 27.30   +15 39.0    1.067    2.040   162.2     8.6    20.4
2006 04 05    12 16.49   +18 10.9    1.015    1.964   154.1    12.9    20.4
2006 04 15    12 05.56   +20 16.7    0.985    1.888   143.3    18.5    20.4
2006 04 25    11 56.17   +21 44.1    0.974    1.811   132.3    24.3    20.5
2006 05 05    11 49.83   +22 27.2    0.976    1.735   121.9    29.6    20.5
2006 05 15    11 47.49   +22 27.0    0.985    1.659   112.5    34.2    20.6
2006 05 25    11 49.45   +21 47.9    0.996    1.585   104.2    38.3    20.6
2006 06 04    11 55.71   +20 33.9    1.006    1.513    97.0    41.7    20.6
2006 06 14    12 06.00   +18 48.8    1.012    1.444    90.9    44.7    20.6
2006 06 24    12 19.97   +16 34.5    1.011    1.379    85.7    47.3    20.6
2006 07 04    12 37.38   +13 51.7    1.005    1.320    81.5    49.6    20.6
2006 07 14    12 58.05   +10 40.7    0.992    1.267    78.2    51.8    20.5
2006 07 24    13 21.87   +07 01.4    0.975    1.223    75.8    53.6    20.4
2006 08 03    13 48.94   +02 54.4    0.956    1.189    74.2    55.2    20.4
2006 08 13    14 19.37   -01 36.9    0.937    1.167    73.4    56.3    20.3
2006 08 23    14 53.36   -06 25.9    0.923    1.158    73.4    56.8    20.3
2006 09 02    15 31.14   -11 20.3    0.917    1.163    74.1    56.6    20.3
2006 09 12    16 12.60   -16 01.7    0.924    1.180    75.2    55.6    20.3
2006 09 22    16 57.26   -20 08.5    0.948    1.210    76.5    53.8    20.4
2006 10 02    17 44.03   -23 20.2    0.990    1.250    77.8    51.5    20.5
2006 10 12    18 31.22   -25 24.3    1.052    1.300    78.6    48.8    20.6
2006 10 22    19 17.06   -26 19.1    1.133    1.357    78.9    46.0    20.8
2006 11 01    20 00.14   -26 12.6    1.232    1.420    78.5    43.2    21.0
2006 11 11    20 39.66   -25 17.7    1.346    1.488    77.5    40.5    21.2
2006 11 21    21 15.44   -23 48.0    1.474    1.559    75.7    37.9    21.4
2006 12 01    21 47.77   -21 55.0    1.613    1.632    73.4    35.4    21.7
2006 12 11    22 17.04   -19 47.8    1.762    1.708    70.5    32.9    21.9

Kyle E. Smalley              (C) Copyright 2006 MPC           M.P.E.C. 2006-G16

Read MPEC 2006-G15 Read MPEC 2006-G17


Our Web policy. Index to the CBAT/MPC/ICQ pages.


Valid HTML 4.01!